This is the latest recevied weather packets stored in our database for station/object DG1ROH. If no packets are shown the sender has not sent any weather packets the latest 10 day(s).
| Time | Temp. | Humidity | Pressure | Rain* | Wind** | Luminosity | Snow |
|---|---|---|---|---|---|---|---|
| 1777357032 | 5.56° C | 65% | 1025.8 hPa | 0 mm | - | 26 W/m² | - |
| 1777356910 | 5.56° C | 64% | 1025.8 hPa | 0 mm | - | 25 W/m² | - |
| 1777356790 | 5.56° C | 64% | 1025.9 hPa | 0 mm | - | 25 W/m² | - |
| 1777356664 | 5.56° C | 65% | 1025.8 hPa | 0 mm | - | 25 W/m² | - |
| 1777356544 | 5.56° C | 65% | 1025.8 hPa | 0 mm | - | 23 W/m² | - |
| 1777356425 | 5.56° C | 66% | 1025.8 hPa | 0 mm | - | 23 W/m² | - |
| 1777356304 | 5.56° C | 67% | 1025.8 hPa | 0 mm | - | 23 W/m² | - |
| 1777356185 | 5° C | 66% | 1025.8 hPa | 0 mm | - | 25 W/m² | - |
| 1777356064 | 5° C | 68% | 1025.7 hPa | 0 mm | - | 26 W/m² | - |
| 1777355946 | 5° C | 67% | 1025.7 hPa | 0 mm | - | 39 W/m² | - |
| 1777355825 | 5° C | 68% | 1025.6 hPa | 0 mm | - | 23 W/m² | - |
| 1777355705 | 5° C | 69% | 1025.7 hPa | 0 mm | - | 23 W/m² | - |
| 1777355584 | 4.44° C | 69% | 1025.7 hPa | 0 mm | - | 23 W/m² | - |
| 1777355464 | 4.44° C | 70% | 1025.7 hPa | 0 mm | - | 23 W/m² | - |
| 1777355341 | 4.44° C | 72% | 1025.8 hPa | 0 mm | - | 21 W/m² | - |
| 1777355221 | 4.44° C | 72% | 1025.6 hPa | 0 mm | - | 23 W/m² | - |
| 1777355100 | 3.89° C | 72% | 1025.6 hPa | 0 mm | - | 23 W/m² | - |
| 1777354982 | 3.89° C | 73% | 1025.6 hPa | 0 mm | - | 25 W/m² | - |
| 1777354861 | 3.89° C | 74% | 1025.6 hPa | 0 mm | - | 26 W/m² | - |
| 1777354741 | 3.33° C | 74% | 1025.6 hPa | 0 mm | - | 23 W/m² | - |
| 1777354620 | 3.33° C | 76% | 1025.6 hPa | 0 mm | - | 21 W/m² | - |
| 1777354501 | 3.33° C | 77% | 1025.5 hPa | 0 mm | - | 21 W/m² | - |
| 1777354381 | 2.78° C | 77% | 1025.6 hPa | 0 mm | - | 19 W/m² | - |
| 1777354261 | 2.78° C | 78% | 1025.6 hPa | 0 mm | - | 21 W/m² | - |
| 1777354141 | 2.78° C | 79% | 1025.6 hPa | 0 mm | - | 19 W/m² | - |
* Rain latest hour (hover to see other rain measurements)
** Current wind speed in m/s (hover to see current wind gust speed)